Sigfox identifier Datetime Temperature Humidity SNR
0038B118 2018-10-09 09:22:39 20.1 38 18.9
0038B118 2018-10-09 08:17:11 20 38 19
0038B118 2018-10-09 07:11:40 20 38 18.9
0038B118 2018-10-09 06:06:11 20 38 18.9
0038B118 2018-10-09 05:00:42 20 37 18.6
0038B118 2018-10-09 01:44:05 20 37 19.8
0038B118 2018-10-09 00:38:32 20 37 19.6
0038B118 2018-10-08 23:33:02 20 37 19.2
0038B118 2018-10-08 22:27:32 19.9 37 19.1
0038B118 2018-10-08 21:22:01 20 37 19.1
0038B118 2018-10-08 20:16:30 19.9 37 19.1
0038B118 2018-10-08 19:10:58 19.9 37 18.9
0038B118 2018-10-08 18:05:28 19.8 36 19
0038B118 2018-10-08 17:00:01 19.8 36 18.8
0038B118 2018-10-08 15:54:33 19.8 36 18.6
0038B118 2018-10-08 14:49:04 19.8 36 18.3
0038B118 2018-10-08 13:43:36 19.8 36 18.2
0038B118 2018-10-08 12:38:08 19.8 36 18.2
0038B118 2018-10-08 11:32:34 19.7 35 18.3
0038B118 2018-10-08 10:27:04 19.5 34 18.3
0038B118 2018-10-08 09:21:35 19.5 34 18.2
0038B118 2018-10-08 08:16:10 19.5 34 18.2
0038B118 2018-10-08 07:10:43 19.5 35 18.2
0038B118 2018-10-08 06:05:14 19.5 35 18
0038B118 2018-10-08 04:59:46 19.5 36 17.6
0038B118 2018-10-08 03:54:17 19.5 36 17.6
0038B118 2018-10-08 02:48:49 19.5 37 17.6
0038B118 2018-10-08 01:43:21 19.7 37 17.6
0038B118 2018-10-08 00:37:53 19.7 38 17.5
0038B118 2018-10-07 23:32:24 19.7 38 17.5
0038B118 2018-10-07 22:26:56 19.7 38 12.2
0038B118 2018-10-07 21:21:27 19.8 39 12.5
0038B118 2018-10-07 20:15:54 19.8 39 12.4
0038B118 2018-10-07 19:10:22 19.8 39 12.3
0038B118 2018-10-07 18:04:50 19.8 39 12.5
0038B118 2018-10-07 16:59:18 19.8 39 13.1
0038B118 2018-10-07 15:53:48 19.8 39 14.5
0038B118 2018-10-07 14:48:14 19.8 39 14.1
0038B118 2018-10-07 13:42:43 19.8 39 14.1
0038B118 2018-10-07 12:37:11 19.8 39 14
0038B118 2018-10-07 11:31:41 19.9 39 14.7
0038B118 2018-10-07 10:26:12 19.9 39 14.8
0038B118 2018-10-07 09:20:44 19.9 39 14.8
0038B118 2018-10-07 08:15:16 20 39 14.8
0038B118 2018-10-07 07:09:46 20 40 14.7
0038B118 2018-10-07 06:04:15 20 40 14.7
0038B118 2018-10-07 04:58:43 20 40 15
0038B118 2018-10-07 03:53:11 20 40 15
0038B118 2018-10-07 02:47:39 20.1 40 15.1
0038B118 2018-10-07 01:42:08 20.2 40 15.1
0038B118 2018-10-07 00:36:37 20.2 41 15.1
0038B118 2018-10-06 22:25:28 20.2 40 15.2
0038B118 2018-10-06 21:19:57 20.2 40 15.1
0038B118 2018-10-06 20:14:26 20.2 40 15.4
0038B118 2018-10-06 19:08:56 20.2 40 15.6
0038B118 2018-10-06 18:03:25 20.2 40 15.6
0038B118 2018-10-06 16:57:50 20.2 40 15.5
0038B118 2018-10-06 15:52:18 20.2 41 15.4
0038B118 2018-10-06 14:46:48 20.2 41 15.4
0038B118 2018-10-06 13:41:17 20.2 40 16.9
0038B118 2018-10-06 12:35:46 20.2 40 18.1
0038B118 2018-10-06 11:30:15 20.2 40 18.6
0038B118 2018-10-06 10:24:45 20.3 40 19.2
0038B118 2018-10-06 09:19:11 20.3 40 19.9
0038B118 2018-10-06 08:13:37 20.4 41 20.1
0038B118 2018-10-06 07:08:03 20.4 41 20.4
0038B118 2018-10-06 06:02:28 20.4 41 20.6
0038B118 2018-10-06 04:56:56 20.4 42 21
0038B118 2018-10-06 03:51:26 20.4 42 21.5
0038B118 2018-10-06 02:45:55 20.5 42 21.8
0038B118 2018-10-06 01:40:24 20.6 43 22
0038B118 2018-10-06 00:34:50 20.6 43 22.3
0038B118 2018-10-05 23:29:17 20.6 44 22.3
0038B118 2018-10-05 22:23:40 20.6 44 22.3
0038B118 2018-10-05 21:18:07 20.6 44 22.5
0038B118 2018-10-05 20:12:34 20.6 45 22.5
0038B118 2018-10-05 19:06:58 20.6 45 22.7
0038B118 2018-10-05 18:01:24 20.6 45 22.8
0038B118 2018-10-05 16:55:50 20.6 45 23
0038B118 2018-10-05 15:50:17 20.6 45 23.1
0038B118 2018-10-05 14:44:44 20.6 45 23.3
0038B118 2018-10-05 13:39:12 20.6 44 23.5
0038B118 2018-10-05 12:33:38 20.6 42 23.8
0038B118 2018-10-05 11:28:09 21 41 24
0038B118 2018-10-05 09:17:03 20.8 40 23.9
0038B118 2018-10-05 08:11:30 20.4 35 23.6
0038B118 2018-10-05 07:05:59 20.5 30 23.4
0038B118 2018-10-05 06:00:25 20.5 29 23.3
0038B118 2018-10-05 04:54:53 20.5 29 23
0038B118 2018-10-05 03:49:19 20.6 29 23.1
0038B118 2018-10-05 02:43:45 20.6 29 22.9
0038B118 2018-10-05 01:38:08 20.6 30 23
0038B118 2018-10-05 00:32:37 20.6 30 22.8
0038B118 2018-10-04 23:27:04 20.8 30 21.8
0038B118 2018-10-04 22:21:30 20.8 30 21.4
0038B118 2018-10-04 21:15:55 21 29 21
0038B118 2018-10-04 20:10:20 21 29 19.4
0038B118 2018-10-04 19:04:46 21 28 20.2
0038B118 2018-10-04 17:59:12 21.1 26 21.4
0038B118 2018-10-04 16:53:35 21.3 31 11.6
0038B118 2018-10-04 15:47:56 20.3 40 0